Location: Mentone
(34.5413°N, 85.5351°W)
Time: 10:51:20
(UTC-05:00)

Tiros 1 despin weight - All Passes

Search period start: 30 September 2014 00:00
Search period end: 10 October 2014 00:00
Orbit: 601 x 652 km, 48.2° (Epoch: 30 September)

Date Brightness Start Highest point End Pass type
(mag) Time Alt. Az. Time Alt. Az. Time Alt. Az.
30 Sep - 00:01:48 10° NW 00:06:19 75° NE 00:10:53 10° ESE night (unlit)
30 Sep - 01:44:48 10° W 01:47:39 16° SW 01:50:30 10° S night (unlit)
30 Sep - 15:50:11 10° S 15:53:45 24° SE 15:57:19 10° E daylight
30 Sep - 17:30:54 10° WSW 17:35:14 53° NNW 17:39:35 10° NE daylight
30 Sep - 19:14:45 10° WNW 19:17:44 17° NNW 19:20:44 10° NNE visible
30 Sep - 20:58:23 10° NNW 21:00:53 15° N 21:03:24 10° NE visible
30 Sep - 22:39:42 10° NW 22:43:43 31° NNE 22:47:45 10° E night (unlit)
01 Oct - 00:21:13 10° WNW 00:25:35 51° SW 00:30:01 10° SSE night (unlit)
01 Oct - 16:08:32 10° SW 16:12:52 54° SE 16:17:12 10° ENE daylight
01 Oct - 17:50:52 10° W 17:54:46 30° NNW 17:58:41 10° NE daylight
01 Oct - 19:35:12 10° NW 19:37:38 14° N 19:40:04 10° NNE visible
01 Oct - 21:17:41 10° NNW 21:20:46 18° NNE 21:23:52 10° ENE visible
01 Oct - 22:58:48 10° NW 23:03:14 56° NNE 23:07:41 10° ESE night (unlit)
02 Oct - 00:41:09 10° W 00:44:42 23° SW 00:48:17 10° S night (unlit)
02 Oct - 14:47:56 10° S 14:50:49 17° SE 14:53:41 10° E daylight
02 Oct - 16:27:42 10° WSW 16:32:09 71° NW 16:36:35 10° NE daylight
02 Oct - 18:11:12 10° WNW 18:14:28 20° NNW 18:17:45 10° NNE daylight
02 Oct - 19:55:13 10° NNW 19:57:34 14° N 19:59:55 10° NE visible
02 Oct - 21:36:46 10° NNW 21:40:31 26° NNE 21:44:17 10° E visible
02 Oct - 23:18:05 10° WNW 23:22:33 71° SW 23:27:04 10° SE night (unlit)
03 Oct - 15:05:44 10° SSW 15:09:52 38° SE 15:13:59 10° ENE daylight
03 Oct - 16:47:27 10° W 16:51:35 37° NNW 16:55:43 10° NE daylight
03 Oct - 18:31:41 10° NW 18:34:18 15° N 18:36:56 10° NNE daylight
03 Oct - 20:14:40 10° NNW 20:17:28 16° NNE 20:20:16 10° NE visible
03 Oct - 21:55:49 10° NW 22:00:05 43° NNE 22:04:23 10° ESE visible
03 Oct - 23:37:44 10° WNW 23:41:43 32° SW 23:45:44 10° SSE night (unlit)
04 Oct - 13:46:16 10° SSE 13:47:53 12° SE 13:49:29 10° ESE daylight
04 Oct - 15:24:35 10° SW 15:29:03 85° SE 15:33:31 10° NE daylight
04 Oct - 17:07:38 10° WNW 17:11:12 23° NNW 17:14:46 10° NNE daylight
04 Oct - 18:51:55 10° NNW 18:54:13 14° N 18:56:31 10° NNE visible
04 Oct - 20:33:48 10° NNW 20:37:15 22° NNE 20:40:44 10° ENE visible
04 Oct - 22:14:59 10° NW 22:19:29 84° NE 22:24:00 10° SE visible
04 Oct - 23:58:23 10° W 00:00:44 14° SW 00:03:05 10° SSW night (unlit)
05 Oct - 14:03:04 10° SSW 14:06:51 27° SE 14:10:38 10° ENE daylight
05 Oct - 15:44:06 10° WSW 15:48:25 47° NNW 15:52:43 10° NE daylight
05 Oct - 17:28:05 10° NW 17:30:58 17° NNW 17:33:51 10° NNE daylight
05 Oct - 19:11:35 10° NNW 19:14:07 15° N 19:16:40 10° NE visible
05 Oct - 20:52:50 10° NW 20:56:53 34° NNE 21:00:58 10° E visible
05 Oct - 22:34:26 10° WNW 22:38:41 44° SW 22:42:59 10° SSE night (unlit)
06 Oct - 14:21:33 10° SW 14:25:58 62° SE 14:30:22 10° ENE daylight
06 Oct - 16:04:06 10° W 16:07:56 27° NNW 16:11:46 10° NE daylight
06 Oct - 17:48:28 10° NW 17:50:50 14° N 17:53:12 10° NNE daylight
06 Oct - 19:30:47 10° NNW 19:33:57 19° NNE 19:37:07 10° ENE visible
06 Oct - 21:11:55 10° NW 21:16:20 63° NE 21:20:47 10° ESE visible
06 Oct - 22:54:30 10° W 22:57:45 20° SW 23:01:01 10° S night (unlit)
07 Oct - 13:00:36 10° S 13:03:51 20° SE 13:07:04 10° E daylight
07 Oct - 14:40:47 10° WSW 14:45:15 63° NW 14:49:40 10° NE daylight
07 Oct - 16:24:27 10° WNW 16:27:38 19° NNW 16:30:48 10° NNE daylight
07 Oct - 18:08:22 10° NNW 18:10:44 14° N 18:13:06 10° NE daylight
07 Oct - 19:49:49 10° NW 19:53:38 27° NNE 19:57:28 10° E visible
07 Oct - 21:31:13 10° WNW 21:35:37 62° SW 21:40:03 10° SE visible
08 Oct - 13:18:36 10° SSW 13:22:53 44° SE 13:27:08 10° ENE daylight
08 Oct - 15:00:35 10° W 15:04:41 34° NNW 15:08:45 10° NE daylight
08 Oct - 16:44:54 10° NW 16:47:27 15° N 16:50:00 10° NNE daylight
08 Oct - 18:27:43 10° NNW 18:30:36 17° NNE 18:33:28 10° NE daylight
08 Oct - 20:08:51 10° NW 20:13:09 47° NNE 20:17:28 10° ESE visible
08 Oct - 21:50:56 10° WNW 21:54:43 28° SW 21:58:32 10° SSE visible
09 Oct - 11:58:31 10° SSE 12:00:50 14° SE 12:03:08 10° E daylight
09 Oct - 13:37:33 10° SW 13:42:05 85° NW 13:46:34 10° NE daylight
09 Oct - 15:20:48 10° WNW 15:24:17 22° NNW 15:27:46 10° NNE daylight
09 Oct - 17:05:02 10° NNW 17:07:20 14° N 17:09:37 10° NNE daylight
09 Oct - 18:46:47 10° NNW 18:50:20 23° NNE 18:53:53 10° ENE visible
09 Oct - 20:28:02 10° NW 20:32:29 86° SW 20:36:58 10° SE visible
09 Oct - 22:12:00 10° WSW 22:13:40 12° SW 22:15:21 10° SSW visible
